Weather History for CYSJ - November, 2013

Change the Weather History Date:

Saturday, November 2, 2013

  Actual Average Record
Temperature  
Mean Temperature 50 °F -  
Max Temperature 59 °F 42 °F 60 °F (1999)
Min Temperature 40 °F 28 °F 21 °F (2008)
Degree Days  
Heating Degree Days 16    
Moisture  
Dew Point 47 °F    
Average Humidity 85    
Maximum Humidity 100    
Minimum Humidity 56    
Precipitation  
Precipitation 0.00 in 0.19 in - ()
Sea Level Pressure  
Sea Level Pressure 29.61 in    
Wind  
Wind Speed 9 mph ()    
Max Wind Speed 23 mph    
Max Gust Speed 38 mph    
Visibility 10.4 miles    
Events Fog    
Averages and records for this station are not official NWS values.
T = Trace of Precipitation, MM = Missing Value Source: Averaged Metar Reports

Daily Weather History Graph

Daily Weather History Graph

Search for Another Location

Airport or City:

Trip Planner

Search our weather history database for the weather conditions in past years. The results will help you decide how hot, cold, wet, or windy it might be!

Date:

Astronomy

Nov. 02, 2013 Rise Set
Actual Time 8:04 AM ADT 6:09 PM ADT
Civil Twilight 7:33 AM ADT 6:40 PM ADT
Nautical Twilight 6:58 AM ADT 7:15 PM ADT
Astronomical Twilight 6:24 AM ADT 7:49 PM ADT
Moon 6:55 AM ADT (11/2) 5:39 PM ADT (11/2)
Length of Visible Light 11h 06m
Length of Day
10h 04m
Waning Crescent, 1% of the Moon is Illuminated
Nov 2
Waning Crescent
Nov 3
New
Nov 10
First Quarter
Nov 17
Full
Nov 25
Last Quarter

Hourly Weather History & Observations

Time (ADT) Temp. Windchill Dew Point Humidity Pressure Visibility Wind Dir Wind Speed Gust Speed Precip Events Conditions
12:00 AM 55.4 °F - 53.6 °F 94% 29.44 in 3.0 mi SW 23.0 mph 34.5 mph N/A   Overcast
1:00 AM 55.4 °F - 51.8 °F 88% 29.44 in 6.0 mi SW 23.0 mph 38.0 mph N/A   Mostly Cloudy
2:00 AM 53.6 °F - 51.8 °F 94% 29.47 in 12.0 mi SW 20.7 mph 32.2 mph N/A   Scattered Clouds
3:00 AM 53 °F - 52 °F 93% 29.51 in 7 mi SW 15.0 mph - -   Mostly Cloudy
3:00 AM 53.6 °F - 51.8 °F 94% 29.51 in 8.0 mi SW 12.7 mph 21.9 mph N/A   Mostly Cloudy
4:00 AM 53.6 °F - 48.2 °F 82% 29.54 in 10.0 mi WSW 6.9 mph - N/A   Scattered Clouds
5:00 AM 53.6 °F - 46.4 °F 77% 29.57 in 12.0 mi West 6.9 mph 17.3 mph N/A   Scattered Clouds
6:00 AM 51.8 °F - 46.4 °F 82% 29.61 in 12.0 mi WSW 6.9 mph - N/A   Scattered Clouds
7:00 AM 50.0 °F - 44.6 °F 82% 29.63 in 12.0 mi WSW 5.8 mph - N/A   Scattered Clouds
8:00 AM 42.8 °F - 41.0 °F 93% 29.65 in 15.0 mi Calm Calm - N/A   Partly Cloudy
9:00 AM 46 °F - 46 °F 97% 29.68 in 15 mi South 3.5 mph - -   Clear
9:00 AM 46.4 °F 44.3 °F 44.6 °F 93% 29.68 in 15.0 mi South 4.6 mph - N/A   Partly Cloudy
10:00 AM 53.6 °F - 46.4 °F 77% 29.66 in 15.0 mi West 3.5 mph - N/A   Partly Cloudy
11:00 AM 57.2 °F - 44.6 °F 63% 29.65 in 15.0 mi WSW 8.1 mph - N/A   Scattered Clouds
12:00 PM 59.0 °F - 44.6 °F 59% 29.66 in 15.0 mi West 8.1 mph - N/A   Mostly Cloudy
1:00 PM 55.4 °F - 46.4 °F 72% 29.63 in 15.0 mi South 9.2 mph - N/A   Mostly Cloudy
2:00 PM 55.4 °F - 46.4 °F 72% 29.62 in 15.0 mi SSW 9.2 mph - N/A   Mostly Cloudy
3:00 PM 58 °F - 47 °F 56% 29.60 in 15 mi South 5.8 mph - -   Scattered Clouds
3:00 PM 57.2 °F - 46.4 °F 67% 29.60 in 15.0 mi South 6.9 mph - N/A   Mostly Cloudy
4:00 PM 57.2 °F - 44.6 °F 63% 29.60 in 15.0 mi South 4.6 mph - N/A   Mostly Cloudy
5:00 PM 55.4 °F - 44.6 °F 67% 29.60 in 15.0 mi South 6.9 mph - N/A   Mostly Cloudy
6:00 PM 51.8 °F - 48.2 °F 88% 29.60 in 15.0 mi South 4.6 mph - N/A   Mostly Cloudy
7:00 PM 46.4 °F - 44.6 °F 93% 29.61 in 15.0 mi Calm Calm - N/A   Mostly Cloudy
7:43 PM 46.4 °F - 44.6 °F 93% 29.64 in 10.0 mi Calm Calm - N/A   Overcast
8:00 PM 46.4 °F - 46.4 °F 100% 29.65 in 8.0 mi Calm Calm - N/A   Overcast
9:00 PM 47 °F - 46 °F 95% 29.65 in 3 mi North 2.3 mph - -   Mist
9:00 PM 46.4 °F - 46.4 °F 100% 29.64 in 3.0 mi Variable 2.3 mph - N/A   Overcast
9:19 PM 46.4 °F - 46.4 °F 100% 29.64 in 1.5 mi Calm Calm - N/A   Overcast
9:34 PM 48.2 °F - 48.2 °F 100% 29.65 in 0.5 mi West 3.5 mph - N/A Fog Fog
10:00 PM 48.2 °F - 46.4 °F 93% 29.68 in 1.0 mi Calm Calm - N/A   Overcast
10:29 PM 48.2 °F - 48.2 °F 100% 29.70 in 3.0 mi NW 5.8 mph - N/A   Overcast
11:00 PM 48.2 °F - 46.4 °F 93% 29.70 in 10.0 mi North 8.1 mph - N/A   Overcast